Hartford, CT

4:10 AM EDT on April 25, 2017 (GMT -0400)
Hartford-brainard

Weather History for KHFD - November, 2011

Change the Weather History Date:

Thursday, November 10, 2011

  Actual Average Record
Temperature  
Mean Temperature 54 °F -  
Max Temperature 61 °F 53 °F 76 °F (1931)
Min Temperature 48 °F 35 °F 19 °F (1980)
Degree Days  
Heating Degree Days 10    
Growing Degree Days 4 (Base 50)    
Moisture  
Dew Point 54 °F    
Average Humidity 91    
Maximum Humidity 100    
Minimum Humidity 74    
Precipitation  
Precipitation 0.36 in - - ()
Sea Level Pressure  
Sea Level Pressure 29.78 in    
Wind  
Wind Speed 2 mph (North)    
Max Wind Speed 13 mph    
Max Gust Speed 18 mph    
Visibility 6 miles    
Events Rain    
Averages and records for this station are not official NWS values.
T = Trace of Precipitation, MM = Missing Value Source: NWS Daily Summary

Daily Weather History Graph

Daily Weather History Graph

Search for Another Location

Airport or City:

Trip Planner

Search our weather history database for the weather conditions in past years. The results will help you decide how hot, cold, wet, or windy it might be!

Date:

Astronomy

Nov. 10, 2011 Rise Set
Actual Time 6:33 AM EST 4:35 PM EST
Civil Twilight 6:03 AM EST 5:04 PM EST
Nautical Twilight 5:30 AM EST 5:37 PM EST
Astronomical Twilight 4:57 AM EST 6:10 PM EST
Moon 4:20 PM EST (11/10) 6:23 AM EST (11/10)
Length of Visible Light 11h 00m
Length of Day
10h 01m
Full, 100% of the Moon is Illuminated
Nov 10
Full
Nov 10
Full
Nov 18
Last Quarter
Nov 25
New
Dec 2
First Quarter

Hourly Weather History & Observations

Time (EST) Temp. Dew Point Humidity Pressure Visibility Wind Dir Wind Speed Gust Speed Precip Events Conditions
12:35 AM 55.4 °F 51.8 °F 88% 30.02 in 10.0 mi Calm Calm - N/A   Overcast
12:48 AM 55.4 °F 51.8 °F 88% 30.01 in 10.0 mi Calm Calm - N/A   Overcast
12:53 AM 55.9 °F 52.0 °F 87% 30.01 in 10.0 mi Calm Calm - N/A   Overcast
1:23 AM 57.2 °F 53.6 °F 88% 30.01 in 10.0 mi South 3.5 mph - N/A   Overcast
1:53 AM 57.0 °F 54.0 °F 89% 30.01 in 10.0 mi Calm Calm - N/A   Overcast
2:12 AM 57.2 °F 53.6 °F 88% 30.00 in 10.0 mi Calm Calm - N/A   Overcast
2:40 AM 57.2 °F 53.6 °F 88% 29.99 in 10.0 mi Calm Calm - N/A   Overcast
2:48 AM 55.4 °F 53.6 °F 94% 29.99 in 10.0 mi Calm Calm - N/A   Overcast
2:53 AM 55.0 °F 53.1 °F 93% 29.99 in 10.0 mi Calm Calm - N/A   Overcast
3:53 AM 53.6 °F 53.6 °F 100% 29.97 in 8.0 mi Calm Calm - N/A   Overcast
4:53 AM 54.0 °F 52.0 °F 93% 29.96 in 9.0 mi North 3.5 mph - N/A   Overcast
5:53 AM 55.0 °F 52.0 °F 89% 29.95 in 8.0 mi Calm Calm - N/A   Overcast
6:53 AM 55.4 °F 51.8 °F 88% 29.95 in 6.0 mi Calm Calm - N/A   Overcast
7:53 AM 55.9 °F 52.0 °F 87% 29.95 in 6.0 mi Calm Calm - N/A   Overcast
8:53 AM 57.9 °F 53.1 °F 84% 29.92 in 6.0 mi NNE 4.6 mph - N/A   Haze
9:53 AM 59.0 °F 53.1 °F 81% 29.90 in 7.0 mi NNW 3.5 mph - N/A   Overcast
10:53 AM 60.1 °F 55.0 °F 83% 29.86 in 5.0 mi North 3.5 mph - 0.00 in   Haze
11:53 AM 61.0 °F 55.9 °F 83% 29.81 in 6.0 mi Calm Calm - N/A   Haze
12:50 PM 60.8 °F 57.2 °F 88% 29.76 in 1.8 mi NNE 3.5 mph - 0.02 in Rain Rain
12:53 PM 60.1 °F 57.0 °F 90% 29.76 in 2.0 mi NNE 3.5 mph - 0.02 in Rain Rain
1:10 PM 60.8 °F 57.2 °F 88% 29.75 in 2.5 mi NNE 3.5 mph - 0.02 in Rain Light Rain
1:15 PM 59.0 °F 57.2 °F 94% 29.75 in 1.8 mi NNE 3.5 mph - 0.03 in Rain Light Rain
1:28 PM 59.0 °F 57.2 °F 94% 29.75 in 1.2 mi Calm Calm - 0.07 in Rain Rain
1:37 PM 59.0 °F 57.2 °F 94% 29.74 in 1.2 mi NE 3.5 mph - 0.10 in Rain Rain
1:46 PM 59.0 °F 57.2 °F 94% 29.73 in 1.2 mi Calm Calm - 0.10 in Rain Light Rain
1:53 PM 59.0 °F 57.9 °F 96% 29.73 in 1.2 mi Calm Calm - 0.12 in Rain Rain
2:28 PM 59.0 °F 57.2 °F 94% 29.71 in 1.2 mi NNW 3.5 mph - 0.09 in Rain Rain
2:53 PM 59.0 °F 57.9 °F 96% 29.70 in 1.8 mi NNW 4.6 mph - 0.15 in Rain Heavy Rain
3:16 PM 59.0 °F 57.2 °F 94% 29.70 in 1.2 mi NNW 3.5 mph - 0.06 in Rain Rain
3:27 PM 59.0 °F 57.2 °F 94% 29.70 in 2.0 mi NNW 3.5 mph - 0.08 in Rain Light Rain
3:40 PM 57.2 °F 57.2 °F 100% 29.69 in 1.0 mi Calm Calm - 0.13 in Rain Heavy Rain
3:44 PM 57.2 °F 57.2 °F 100% 29.69 in 1.0 mi North 3.5 mph - 0.15 in Rain Heavy Rain
3:53 PM 57.2 °F 57.2 °F 100% 29.69 in 1.2 mi North 3.5 mph - N/A Rain Rain
4:01 PM 57.2 °F 57.2 °F 100% 29.68 in 1.8 mi NNE 3.5 mph - 0.01 in Rain Light Rain
4:32 PM 57.2 °F 57.2 °F 100% 29.67 in 1.2 mi Calm Calm - 0.06 in Rain Light Rain
4:39 PM 57.2 °F 57.2 °F 100% 29.66 in 2.0 mi NE 4.6 mph - 0.06 in Rain Light Rain
4:50 PM 57.2 °F 57.2 °F 100% 29.67 in 4.0 mi Calm Calm - 0.06 in Rain Light Rain
4:53 PM 57.0 °F 57.0 °F 100% 29.67 in 4.0 mi Calm Calm - 0.07 in Rain Light Rain
5:53 PM 57.0 °F 57.0 °F 100% 29.64 in 6.0 mi North 3.5 mph - 0.00 in   Overcast
6:06 PM 57.2 °F 55.4 °F 94% 29.64 in 5.0 mi Calm Calm - N/A   Overcast
6:53 PM 57.0 °F 55.9 °F 96% 29.63 in 4.0 mi North 3.5 mph - N/A   Overcast
7:37 PM 55.4 °F 51.8 °F 88% 29.62 in 10.0 mi NNW 12.7 mph 18.4 mph N/A   Overcast
7:53 PM 54.0 °F 46.9 °F 77% 29.62 in 10.0 mi NW 11.5 mph - N/A   Overcast
8:29 PM 51.8 °F 46.4 °F 82% 29.61 in 10.0 mi NNW 5.8 mph - N/A   Scattered Clouds
8:53 PM 51.1 °F 44.1 °F 77% 29.61 in 10.0 mi NW 8.1 mph - N/A   Clear
9:53 PM 50.0 °F 43.0 °F 77% 29.60 in 10.0 mi North 4.6 mph - N/A   Mostly Cloudy
10:53 PM 48.0 °F 42.1 °F 80% 29.59 in 10.0 mi North 5.8 mph - N/A   Mostly Cloudy
11:53 PM 48.0 °F 39.9 °F 74% 29.61 in 10.0 mi NNW 6.9 mph - N/A   Overcast